Time,TemperatureF,DewpointF,PressureIn,WindDirection,WindDirectionDegrees,WindSpeedMPH,WindSpeedGustMPH,Humidity,HourlyPrecipIn,Conditions,Clouds,dailyrainin,SolarRadiationWatts/m^2,SoftwareType,DateUTC
2013-05-09 00:00:00,39.4,36.4,30.06,ENE,61,2.0,3.0,89,0.00,,,0.28,0,Wunderground v.1.15,2013-05-09 06:00:00,
2013-05-09 00:10:00,39.6,36.6,30.06,NE,49,3.0,3.0,89,0.00,,,0.00,0,Wunderground v.1.15,2013-05-09 06:10:00,
2013-05-09 00:20:00,39.6,36.6,30.06,NE,49,1.0,1.0,89,0.00,,,0.00,0,Wunderground v.1.15,2013-05-09 06:20:00,
2013-05-09 00:40:00,38.9,35.9,30.06,NNW,346,0.0,0.0,89,0.00,,,0.00,0,Wunderground v.1.15,2013-05-09 06:40:00,
2013-05-09 00:50:00,38.5,35.8,30.06,NNW,346,0.0,0.0,90,0.00,,,0.00,0,Wunderground v.1.15,2013-05-09 06:50:00,
2013-05-09 01:10:00,37.8,35.4,30.06,NNW,346,2.0,2.0,91,0.00,,,0.00,0,Wunderground v.1.15,2013-05-09 07:10:00,
2013-05-09 01:20:00,37.5,35.1,30.06,NNW,329,3.0,3.0,91,0.00,,,0.00,0,Wunderground v.1.15,2013-05-09 07:20:00,
2013-05-09 01:50:00,37.2,35.1,30.07,NNW,331,3.0,3.0,92,0.00,,,0.00,0,Wunderground v.1.15,2013-05-09 07:50:00,
2013-05-09 02:00:00,37.6,35.5,30.07,North,11,2.0,2.0,92,0.00,,,0.00,0,Wunderground v.1.15,2013-05-09 08:00:00,
2013-05-09 02:20:00,38.4,35.4,30.07,North,355,1.0,1.0,89,0.00,,,0.00,0,Wunderground v.1.15,2013-05-09 08:20:00,
2013-05-09 02:30:00,38.3,35.3,30.08,North,9,1.0,1.0,89,0.00,,,0.00,0,Wunderground v.1.15,2013-05-09 08:30:00,
2013-05-09 02:40:00,38.1,35.1,30.07,North,9,0.0,0.0,89,0.00,,,0.00,0,Wunderground v.1.15,2013-05-09 08:40:00,
2013-05-09 03:00:00,37.9,34.9,30.07,North,9,2.0,2.0,89,0.00,,,0.00,0,Wunderground v.1.15,2013-05-09 09:00:00,
2013-05-09 03:10:00,37.8,34.8,30.07,North,351,0.0,0.0,89,0.00,,,0.00,0,Wunderground v.1.15,2013-05-09 09:10:00,
2013-05-09 03:30:00,37.2,34.3,30.07,North,350,1.0,1.0,89,0.00,,,0.00,0,Wunderground v.1.15,2013-05-09 09:30:00,
2013-05-09 03:40:00,36.4,33.5,30.06,NNW,331,3.0,3.0,89,0.00,,,0.00,0,Wunderground v.1.15,2013-05-09 09:40:00,
2013-05-09 04:00:00,35.5,32.9,30.07,NNW,331,3.0,3.0,90,0.00,,,0.00,0,Wunderground v.1.15,2013-05-09 10:00:00,
2013-05-09 04:10:00,35.1,32.7,30.07,NW,321,2.0,2.0,91,0.00,,,0.00,0,Wunderground v.1.15,2013-05-09 10:10:00,
2013-05-09 04:20:00,34.8,32.4,30.07,NW,321,3.0,3.0,91,0.00,,,0.00,0,Wunderground v.1.15,2013-05-09 10:20:00,
2013-05-09 04:40:00,34.4,32.0,30.08,NW,321,0.0,0.0,91,0.00,,,0.00,0,Wunderground v.1.15,2013-05-09 10:40:00,
2013-05-09 04:50:00,34.4,32.0,30.08,NW,321,0.0,0.0,91,0.00,,,0.00,0,Wunderground v.1.15,2013-05-09 10:50:00,
2013-05-09 05:10:00,34.4,32.3,30.08,NW,321,2.0,2.0,92,0.00,,,0.00,0,Wunderground v.1.15,2013-05-09 11:10:00,
2013-05-09 05:20:00,34.6,32.5,30.08,NW,321,2.0,2.0,92,0.00,,,0.00,0,Wunderground v.1.15,2013-05-09 11:20:00,
2013-05-09 05:30:00,35.2,33.1,30.08,NW,321,2.0,3.0,92,0.00,,,0.00,0,Wunderground v.1.15,2013-05-09 11:30:00,
2013-05-09 05:50:00,35.8,33.2,30.09,WNW,296,2.0,2.0,90,0.00,,,0.00,0,Wunderground v.1.15,2013-05-09 11:50:00,
2013-05-09 06:00:00,35.9,33.3,30.09,WNW,296,1.0,1.0,90,0.00,,,0.00,0,Wunderground v.1.15,2013-05-09 12:00:00,
2013-05-09 06:10:00,36.0,33.4,30.09,WNW,296,2.0,3.0,90,0.00,,,0.00,7,Wunderground v.1.15,2013-05-09 12:10:00,
2013-05-09 06:30:00,36.3,33.4,30.08,WNW,290,4.0,4.0,89,0.00,,,0.00,32,Wunderground v.1.15,2013-05-09 12:30:00,
2013-05-09 06:40:00,36.6,33.7,30.08,WNW,292,3.0,3.0,89,0.00,,,0.00,40,Wunderground v.1.15,2013-05-09 12:40:00,
2013-05-09 07:00:00,37.1,34.4,30.09,WNW,296,0.0,0.0,90,0.00,,,0.00,60,Wunderground v.1.15,2013-05-09 13:00:00,
2013-05-09 07:10:00,37.4,34.7,30.09,WNW,296,0.0,0.0,90,0.00,,,0.00,60,Wunderground v.1.15,2013-05-09 13:10:00,
2013-05-09 07:20:00,37.8,34.8,30.10,WNW,296,0.0,0.0,89,0.00,,,0.00,62,Wunderground v.1.15,2013-05-09 13:20:00,
2013-05-09 07:40:00,38.9,36.5,30.09,WNW,296,0.0,0.0,91,0.00,,,0.00,95,Wunderground v.1.15,2013-05-09 13:40:00,
2013-05-09 07:50:00,39.1,35.6,30.09,WNW,296,0.0,0.0,87,0.00,,,0.00,105,Wunderground v.1.15,2013-05-09 13:50:00,
2013-05-09 08:20:00,40.3,35.2,30.10,WNW,297,1.0,1.0,82,0.00,,,0.00,100,Wunderground v.1.15,2013-05-09 14:20:00,
2013-05-09 08:30:00,40.3,34.0,30.10,WNW,300,1.0,1.0,78,0.00,,,0.00,105,Wunderground v.1.15,2013-05-09 14:30:00,
2013-05-09 08:50:00,40.9,34.2,30.11,NNW,343,1.0,2.0,77,0.00,,,0.00,178,Wunderground v.1.15,2013-05-09 14:50:00,
2013-05-09 09:00:00,41.3,34.0,30.11,NNE,16,1.0,2.0,75,0.00,,,0.00,237,Wunderground v.1.15,2013-05-09 15:00:00,
2013-05-09 09:30:00,43.6,34.8,30.11,East,98,2.0,6.0,71,0.00,,,0.00,584,Wunderground v.1.15,2013-05-09 15:30:00,
2013-05-09 09:40:00,44.3,34.8,30.11,NE,38,5.0,5.0,69,0.00,,,0.00,508,Wunderground v.1.15,2013-05-09 15:40:00,
2013-05-09 10:00:00,44.7,34.8,30.11,ENE,74,5.0,8.0,68,0.00,,,0.00,912,Wunderground v.1.15,2013-05-09 16:00:00,
2013-05-09 10:10:00,44.9,33.5,30.11,SE,134,4.0,4.0,64,0.00,,,0.00,468,Wunderground v.1.15,2013-05-09 16:10:00,
2013-05-09 10:20:00,44.5,33.5,30.11,SE,138,7.0,7.0,65,0.00,,,0.00,571,Wunderground v.1.15,2013-05-09 16:20:00,
2013-05-09 10:40:00,44.7,33.3,30.11,NE,55,7.0,7.0,64,0.00,,,0.00,403,Wunderground v.1.15,2013-05-09 16:40:00,
2013-05-09 10:50:00,46.4,34.1,30.11,ESE,118,4.0,4.0,62,0.00,,,0.00,710,Wunderground v.1.15,2013-05-09 16:50:00,
2013-05-09 11:01:00,46.0,35.3,30.11,East,84,5.0,11.0,66,0.00,,,0.00,548,Wunderground v.1.15,2013-05-09 17:01:00,
2013-05-09 11:20:00,45.6,33.3,30.12,ENE,63,7.0,7.0,62,0.00,,,0.00,492,Wunderground v.1.15,2013-05-09 17:20:00,
2013-05-09 11:30:00,46.0,34.1,30.12,SE,132,7.0,7.0,63,0.00,,,0.00,935,Wunderground v.1.15,2013-05-09 17:30:00,
2013-05-09 11:40:00,47.3,32.4,30.11,ENE,76,8.0,8.0,56,0.00,,,0.00,1079,Wunderground v.1.15,2013-05-09 17:40:00,
2013-05-09 12:00:00,48.1,32.7,30.11,ESE,117,9.0,12.0,55,0.00,,,0.00,1093,Wunderground v.1.15,2013-05-09 18:00:00,
2013-05-09 12:10:00,47.4,31.1,30.11,ENE,63,9.0,9.0,53,0.00,,,0.00,420,Wunderground v.1.15,2013-05-09 18:10:00,
2013-05-09 12:21:00,46.8,32.4,30.11,ENE,59,6.0,6.0,57,0.00,,,0.00,348,Wunderground v.1.15,2013-05-09 18:21:00,
2013-05-09 12:40:00,46.6,31.7,30.11,ESE,104,8.0,8.0,56,0.00,,,0.00,246,Wunderground v.1.15,2013-05-09 18:40:00,
2013-05-09 12:50:00,47.0,32.5,30.11,East,96,9.0,11.0,57,0.00,,,0.00,369,Wunderground v.1.15,2013-05-09 18:50:00,
2013-05-09 13:10:00,48.4,34.3,30.11,East,86,11.0,15.0,58,0.00,,,0.00,1288,Wunderground v.1.15,2013-05-09 19:10:00,
2013-05-09 13:20:00,46.7,34.8,30.12,East,92,13.0,21.0,63,0.00,,,0.00,568,Wunderground v.1.15,2013-05-09 19:20:00,
2013-05-09 13:30:00,47.1,34.7,30.12,East,84,15.0,15.0,62,0.00,,,0.00,517,Wunderground v.1.15,2013-05-09 19:30:00,
2013-05-09 13:50:00,43.8,34.3,30.12,WNW,283,7.0,7.0,69,0.00,,,0.00,603,Wunderground v.1.15,2013-05-09 19:50:00,
2013-05-09 14:00:00,44.7,34.0,30.12,NNW,345,6.0,6.0,66,0.00,,,0.00,1005,Wunderground v.1.15,2013-05-09 20:00:00,
2013-05-09 14:10:00,47.3,34.9,30.11,NNE,31,4.0,4.0,62,0.00,,,0.00,882,Wunderground v.1.15,2013-05-09 20:10:00,
2013-05-09 14:30:00,50.2,31.2,30.10,SE,141,4.0,8.0,48,0.00,,,0.00,997,Wunderground v.1.15,2013-05-09 20:30:00,
2013-05-09 14:40:00,49.9,32.0,30.10,WNW,300,4.0,4.0,50,0.00,,,0.00,979,Wunderground v.1.15,2013-05-09 20:40:00,
2013-05-09 14:50:00,50.7,32.2,30.09,SE,138,1.0,1.0,49,0.00,,,0.00,953,Wunderground v.1.15,2013-05-09 20:50:00,
2013-05-09 15:10:00,52.3,32.6,30.08,North,5,4.0,4.0,47,0.00,,,0.00,963,Wunderground v.1.15,2013-05-09 21:10:00,
2013-05-09 15:20:00,53.8,35.1,30.08,East,90,1.0,14.0,49,0.00,,,0.00,1011,Wunderground v.1.15,2013-05-09 21:20:00,
2013-05-09 15:30:00,52.2,32.6,30.08,East,81,6.0,8.0,47,0.00,,,0.00,403,Wunderground v.1.15,2013-05-09 21:30:00,
2013-05-09 15:50:00,48.6,34.5,30.08,ESE,121,14.0,15.0,58,0.00,,,0.00,860,Wunderground v.1.15,2013-05-09 21:50:00,
2013-05-09 16:00:00,49.6,35.0,30.07,SE,126,10.0,12.0,57,0.00,,,0.00,816,Wunderground v.1.15,2013-05-09 22:00:00,
2013-05-09 16:11:00,50.5,33.5,30.07,ESE,110,8.0,8.0,52,0.00,,,0.00,807,Wunderground v.1.15,2013-05-09 22:11:00,
2013-05-09 16:30:00,48.9,32.0,30.07,SE,124,6.0,6.0,52,0.00,,,0.00,246,Wunderground v.1.15,2013-05-09 22:30:00,
2013-05-09 16:40:00,48.5,32.6,30.07,East,94,7.0,11.0,54,0.00,,,0.00,285,Wunderground v.1.15,2013-05-09 22:40:00,
2013-05-09 17:10:00,41.7,35.0,30.09,ESE,117,5.0,5.0,77,0.14,,,0.09,100,Wunderground v.1.15,2013-05-09 23:10:00,
2013-05-09 17:20:00,42.5,36.1,30.10,ENE,62,3.0,7.0,78,0.11,,,0.11,190,Wunderground v.1.15,2013-05-09 23:20:00,
2013-05-09 17:40:00,43.8,36.0,30.10,NE,48,0.0,0.0,74,0.00,,,0.12,156,Wunderground v.1.15,2013-05-09 23:40:00,
2013-05-09 17:50:00,43.8,36.7,30.10,WNW,290,1.0,2.0,76,0.00,,,0.12,128,Wunderground v.1.15,2013-05-09 23:50:00,
2013-05-09 18:00:00,43.6,37.5,30.09,WNW,290,0.0,0.0,79,0.00,,,0.12,142,Wunderground v.1.15,2013-05-10 00:00:00,
2013-05-09 18:20:00,44.2,37.1,30.08,SW,229,0.0,0.0,76,0.00,,,0.12,142,Wunderground v.1.15,2013-05-10 00:20:00,
2013-05-09 18:30:00,44.5,37.4,30.08,SW,226,1.0,1.0,76,0.00,,,0.12,281,Wunderground v.1.15,2013-05-10 00:30:00,
2013-05-09 18:40:00,45.7,37.5,30.07,SW,226,0.0,0.0,73,0.00,,,0.12,109,Wunderground v.1.15,2013-05-10 00:40:00,
2013-05-09 19:00:00,44.2,37.1,30.07,SW,227,0.0,0.0,76,0.00,,,0.12,81,Wunderground v.1.15,2013-05-10 01:00:00,
2013-05-09 19:10:00,43.3,37.2,30.07,SW,227,1.0,3.0,79,0.00,,,0.12,40,Wunderground v.1.15,2013-05-10 01:10:00,
2013-05-09 19:30:00,40.9,35.8,30.08,SW,227,0.0,0.0,82,0.00,,,0.12,25,Wunderground v.1.15,2013-05-10 01:30:00,
2013-05-09 19:40:00,39.8,35.4,30.08,SW,227,0.0,0.0,84,0.00,,,0.12,18,Wunderground v.1.15,2013-05-10 01:40:00,
2013-05-09 19:50:00,38.9,34.8,30.08,SW,227,1.0,1.0,85,0.00,,,0.12,11,Wunderground v.1.15,2013-05-10 01:50:00,
2013-05-09 20:10:00,37.2,33.7,30.09,SW,227,2.0,3.0,87,0.00,,,0.12,0,Wunderground v.1.15,2013-05-10 02:10:00,
2013-05-09 20:20:00,36.9,33.7,30.10,SW,228,3.0,3.0,88,0.00,,,0.12,0,Wunderground v.1.15,2013-05-10 02:20:00,
2013-05-09 20:50:00,35.9,33.0,30.11,SW,232,0.0,0.0,89,0.00,,,0.12,0,Wunderground v.1.15,2013-05-10 02:50:00,
2013-05-09 21:00:00,35.5,32.6,30.12,SW,236,3.0,3.0,89,0.00,,,0.12,0,Wunderground v.1.15,2013-05-10 03:00:00,
2013-05-09 21:30:00,34.4,31.8,30.13,SW,236,0.0,0.0,90,0.00,,,0.12,0,Wunderground v.1.15,2013-05-10 03:30:00,
2013-05-09 21:40:00,34.2,31.6,30.13,NNW,337,2.0,2.0,90,0.00,,,0.12,0,Wunderground v.1.15,2013-05-10 03:40:00,
2013-05-09 22:00:00,33.6,31.0,30.14,NNW,337,0.0,0.0,90,0.00,,,0.12,0,Wunderground v.1.15,2013-05-10 04:00:00,
2013-05-09 22:10:00,33.1,30.5,30.14,NNW,337,0.0,0.0,90,0.00,,,0.12,0,Wunderground v.1.15,2013-05-10 04:10:00,
2013-05-09 22:21:00,32.9,30.3,30.14,NNW,337,1.0,1.0,90,0.00,,,0.12,0,Wunderground v.1.15,2013-05-10 04:21:00,
2013-05-09 22:40:00,32.7,30.4,30.14,NNW,333,1.0,1.0,91,0.00,,,0.12,0,Wunderground v.1.15,2013-05-10 04:40:00,
2013-05-09 22:50:00,32.8,30.5,30.15,NNW,333,0.0,0.0,91,0.00,,,0.12,0,Wunderground v.1.15,2013-05-10 04:50:00,
2013-05-09 23:00:00,33.8,31.7,30.16,NNE,19,3.0,3.0,92,0.00,,,0.12,0,Wunderground v.1.15,2013-05-10 05:00:00,
2013-05-09 23:20:00,35.9,33.8,30.16,NNW,339,0.0,0.0,92,0.00,,,0.12,0,Wunderground v.1.15,2013-05-10 05:20:00,
2013-05-09 23:30:00,36.2,34.1,30.15,NNW,339,0.0,0.0,92,0.00,,,0.12,0,Wunderground v.1.15,2013-05-10 05:30:00,